Clear Lake, IA

9:17 PM CST on December 03, 2016 (GMT -0600)
Mason City Municipal

Weather History for KMCW - November, 2011

Change the Weather History Date:

Sunday, November 6, 2011

  Actual Average Record
Temperature  
Mean Temperature 45 °F 39 °F  
Max Temperature 54 °F 49 °F 75 °F (1916)
Min Temperature 35 °F 29 °F 0 °F (1991)
Degree Days  
Heating Degree Days 20 26  
Month to date heating degree days 138 147  
Since 1 July heating degree days 776 885  
Cooling Degree Days 0 0  
Month to date cooling degree days 0 0  
Year to date cooling degree days 789 616  
Moisture  
Dew Point 36 °F    
Average Humidity 67    
Maximum Humidity 92    
Minimum Humidity 41    
Precipitation  
Precipitation 0.00 in 0.07 in 1.23 in (2000)
Month to date precipitation 0.15 0.42  
Year to date precipitation 20.84 32.50  
Snow  
Snow 0.00 in 0.10 in 1.50 in (1943)
Month to date snowfall 0.0 0.4  
Since 1 July snowfall 0.0 0.8  
Since 1 September snowfall 0.0 0.8  
Snow Depth 0.00 in    
Sea Level Pressure  
Sea Level Pressure 29.82 in    
Wind  
Wind Speed 16 mph (SSW)    
Max Wind Speed 29 mph    
Max Gust Speed 36 mph    
Visibility 9 miles    
Events      
T = Trace of Precipitation, MM = Missing Value Source: NWS Daily Summary

Daily Weather History Graph

Daily Weather History Graph

Search for Another Location

Airport or City:

Trip Planner

Search our weather history database for the weather conditions in past years. The results will help you decide how hot, cold, wet, or windy it might be!

Date:

Astronomy

Nov. 06, 2011 Rise Set
Actual Time 6:54 AM CST 4:59 PM CST
Civil Twilight 6:24 AM CST 5:29 PM CST
Nautical Twilight 5:50 AM CST 6:02 PM CST
Astronomical Twilight 5:17 AM CST 6:36 PM CST
Moon 2:47 PM CST (11/6) 2:55 AM CST (11/6)
Length of Visible Light 11h 04m
Length of Day
10h 04m
Waxing Gibbous, 86% of the Moon is Illuminated
Nov 6
Waxing Gibbous
Nov 10
Full
Nov 18
Last Quarter
Nov 25
New
Dec 2
First Quarter

Hourly Weather History & Observations

Time (CST) Temp. Windchill Dew Point Humidity Pressure Visibility Wind Dir Wind Speed Gust Speed Precip Events Conditions
12:53 AM 44.1 °F 35.9 °F 42.1 °F 93% 29.76 in 5.0 mi SSE 19.6 mph - N/A   Clear
1:53 AM 45.0 °F 37.4 °F 42.1 °F 90% 29.74 in 6.0 mi SSE 18.4 mph 27.6 mph N/A   Clear
1:53 AM 45.0 °F 37.4 °F 42.1 °F 90% 29.73 in 6.0 mi SSE 18.4 mph 25.3 mph N/A   Clear
2:53 AM 46.0 °F 38.5 °F 42.1 °F 86% 29.71 in 7.0 mi South 19.6 mph 27.6 mph N/A   Clear
3:53 AM 46.0 °F 38.8 °F 42.1 °F 86% 29.69 in 7.0 mi SSE 18.4 mph 25.3 mph N/A   Clear
4:53 AM 45.0 °F 37.6 °F 42.1 °F 90% 29.69 in 7.0 mi SSE 17.3 mph 24.2 mph N/A   Clear
5:53 AM 45.0 °F 37.6 °F 42.1 °F 90% 29.68 in 7.0 mi SSE 17.3 mph 25.3 mph N/A   Clear
6:53 AM 46.9 °F - 43.0 °F 86% 29.67 in 6.0 mi South 20.7 mph - N/A   Clear
7:53 AM 50.0 °F - 45.0 °F 83% 29.68 in 7.0 mi South 21.9 mph 31.1 mph N/A   Overcast
8:14 AM 50.0 °F - 44.6 °F 82% 29.68 in 7.0 mi South 23.0 mph 31.1 mph N/A   Overcast
8:53 AM 52.0 °F - 46.0 °F 80% 29.70 in 9.0 mi South 21.9 mph 31.1 mph N/A   Mostly Cloudy
9:53 AM 53.1 °F - 44.1 °F 71% 29.72 in 10.0 mi SW 23.0 mph 34.5 mph N/A   Overcast
10:50 AM 53.6 °F - 41.0 °F 62% 29.77 in 10.0 mi WSW 17.3 mph 31.1 mph N/A   Partly Cloudy
10:53 AM 53.1 °F - 39.9 °F 61% 29.77 in 10.0 mi WSW 19.6 mph 25.3 mph N/A   Partly Cloudy
11:53 AM 51.1 °F - 36.0 °F 56% 29.82 in 10.0 mi WSW 21.9 mph 32.2 mph N/A   Clear
12:53 PM 52.0 °F - 34.0 °F 50% 29.83 in 10.0 mi WSW 23.0 mph 29.9 mph N/A   Clear
1:53 PM 52.0 °F - 32.0 °F 47% 29.86 in 10.0 mi WSW 20.7 mph - N/A   Clear
2:53 PM 52.0 °F - 30.0 °F 43% 29.88 in 10.0 mi WSW 18.4 mph 26.5 mph N/A   Clear
3:53 PM 52.0 °F - 28.0 °F 40% 29.89 in 10.0 mi WSW 20.7 mph 28.8 mph N/A   Clear
4:53 PM 48.9 °F - 28.0 °F 44% 29.92 in 10.0 mi WSW 11.5 mph - N/A   Clear
5:53 PM 46.9 °F - 27.0 °F 46% 29.97 in 10.0 mi SW 10.4 mph - N/A   Clear
6:53 PM 45.0 °F 39.7 °F 28.0 °F 52% 30.00 in 10.0 mi SW 10.4 mph - N/A   Clear
7:53 PM 39.9 °F 34.5 °F 27.0 °F 60% 30.03 in 10.0 mi SW 8.1 mph - N/A   Clear
8:53 PM 39.2 °F 34.2 °F 26.6 °F 61% 30.05 in 10.0 mi SW 6.9 mph - N/A   Clear
9:53 PM 41.0 °F 35.2 °F 27.0 °F 57% 30.07 in 10.0 mi SW 9.2 mph - N/A   Clear
10:53 PM 35.1 °F 29.3 °F 26.1 °F 70% 30.08 in 10.0 mi SW 6.9 mph - N/A   Clear